www.pogodaiklimat.ru

Погода и климат >> Архив погоды >> Бангладеш >> Madaripur


ПОГОДА в Madaripur

  • Прогноз погоды в Madaripur
  • Монитор погоды в Madaripur
  • Климат города

АРХИВ ПОГОДЫ в Madaripur

Время (UTC), дата Ветер
(напр.,м/с)
 
Видим.   Явления Облачность Т
(С)
Тd
(С)
f
(%)
Тe
(С)
Тes
(С)
Комфортность P
(гПа)
Po
(гПа)
Тmin
(С)
Tmax
(С)
R
(мм)
R24
(мм)
S
(см)
18 16.06 штиль 0 4000 м 10/4 500 м
[Sc As op]
+28.0 +26.0 89 +42 +42 опасность
перегрева
1000.7 999.9
21 16.06 штиль 0 4000 м 8/4 540 м
[Sc As trans]
+28.5 +28.0 97 +47 +47 опасность
перегрева
1000.4 999.6
00 17.06 штиль 0 6000 м 10/4 540 м
[Sc As op]
+29.0 +28.0 94 +48 +48 опасность
перегрева
1000.4 999.6
03 17.06 штиль 0 7000 м 9/4 500 м
[Sc As trans]
+29.0 +28.0 94 +48 +53 опасность
перегрева
1000.8 1000.0 +23.0
06 17.06 штиль 0 8000 м 9/3 500 м
[Sc As trans]
+32.9 +29.0 80 +56 +67 опасность
перегрева
1000.4 999.6
09 17.06 штиль 0 8000 м 9/3 480 м
[Sc As trans]
+32.5 +29.0 82 +56 +62 опасность
перегрева
999.5 998.7
12 17.06 штиль 0 8000 м 9/3 540 м
[Sc As trans]
+32.4 +28.0 78 +53 +53 опасность
перегрева
998.5 997.8 +32.7
15 17.06 штиль 0 4000 м 10/4 540 м
[Sc As op]
+30.6 +29.0 91 +53 +53 опасность
перегрева
999.1 998.7
18 17.06 штиль 0 4000 м 10/4 540 м
[Sc As op]
+30.3 +29.0 93 +53 +53 опасность
перегрева
998.8 998.0
21 17.06 штиль 0 4000 м ясно +29.5 +28.0 92 +49 +49 опасность
перегрева
1000.0 999.2
00 18.06 штиль 0 7000 м 8/4 540 м
[Sc As trans]
+29.0 +28.0 94 +48 +48 опасность
перегрева
1000.4 999.6
03 18.06 штиль 0 7000 м 8/4 540 м
[Sc As trans]
+31.0 +29.0 89 +54 +60 опасность
перегрева
1000.0 999.2 +26.3
06 18.06 штиль 0 8000 м 9/4 500 м
[Sc As trans]
+34.0 +30.0 80 +61 +70 опасность
перегрева
1000.3 999.6
09 18.06 штиль 0 8000 м 6/4 480 м
[Sc diur, vesp Ac trans]
+36.0 +29.0 67 +59 +67 опасность
перегрева
998.3 997.6
12 18.06 штиль 0 5000 м 6/4 480 м
[Sc diur, vesp Ac trans]
+32.0 +29.0 84 +55 +55 опасность
перегрева
997.3 996.6 +36.5
15 18.06 штиль 0 4000 м ясно +30.7 +29.0 91 +54 +54 опасность
перегрева
999.5 998.7
18 18.06 штиль 0 4000 м ясно +31.3 +30.0 93 +58 +58 опасность
перегрева
1000.5 999.7
21 18.06 штиль 0 4000 м ясно +30.0 +29.0 94 +52 +52 опасность
перегрева
1000.0 999.2
00 19.06 Ю 1 7000 м 8/4 540 м
[Sc As trans]
+29.3 +28.0 93 +49 +49 опасность
перегрева
999.8 999.0
03 19.06 штиль 0 8000 м 10/4 540 м
[Sc As op]
+31.5 +29.0 87 +55 +57 опасность
перегрева
1001.4 1000.6 +28.8
06 19.06 штиль 0 5000 м слабый дождь {гроза} 10/5 270 м
[Cb calv As op]
+24.4 +23.0 92 +32 +35 очень
душно
1002.0 1001.2 40
09 19.06 штиль 0 5000 м слабый дождь 10/4 420 м
[Sc As trans]
+25.0 +24.0 94 +34 +38 очень
душно
1000.2 999.4
12 19.06 штиль 0 5000 м слабый дождь 9/4 500 м
[Sc As trans]
+26.0 +24.0 89 +36 +36 очень
душно
999.0 998.2 +30.7 3
15 19.06 штиль 0 4000 м ясно +27.3 +26.0 93 +41 +41 опасность
перегрева
1001.0 1000.2
18 19.06 штиль 0 4000 м ясно +27.5 +27.0 97 +43 +43 опасность
перегрева
1000.7 999.9
21 19.06 штиль 0 4000 м 4/4 540 м
[Sc]
+26.2 +25.0 93 +37 +37 очень
душно
1002.3 1001.5
03 20.06 штиль 0 7000 м 8/4 540 м
[Sc As trans]
+30.0 +28.0 89 +50 +56 опасность
перегрева
1003.2 1002.4 +24.8
06 20.06 штиль 0 8000 м 9/4 500 м
[Sc As trans]
+34.0 +28.0 71 +55 +64 опасность
перегрева
1003.5 1002.7
15 20.06 штиль 0 4000 м ясно +27.0 +26.0 94 +40 +40 очень
душно
1003.7 1002.9
18 20.06 штиль 0 4000 м ясно +28.0 +27.0 94 +44 +44 опасность
перегрева
1003.7 1002.9
21 20.06 штиль 0 4000 м 4/4 540 м
[Sc]
+27.5 +27.0 97 +43 +43 опасность
перегрева
1003.7 1002.9
00 21.06 штиль 0 7000 м 8/4 540 м
[Sc As trans]
+27.3 +27.0 98 +43 +43 опасность
перегрева
1003.8 1003.0
03 21.06 штиль 0 7000 м 9/4 500 м
[Sc As trans]
+30.0 +28.0 89 +50 +55 опасность
перегрева
1004.5 1003.7 +26.4
06 21.06 штиль 0 8000 м 9/4 500 м
[Sc As trans]
+30.0 +25.0 75 +43 +52 опасность
перегрева
1004.7 1003.9
09 21.06 штиль 0 8000 м 9/3 480 м
[Sc diur, vesp As trans]
+34.0 +28.0 71 +55 +60 опасность
перегрева
1001.5 1000.7
12 21.06 штиль 0 5000 м 8/4 540 м
[Sc As trans]
+31.0 +26.0 75 +46 +47 опасность
перегрева
1001.0 1000.2 +34.5
15 21.06 штиль 0 4000 м ясно +30.0 +29.0 94 +52 +52 опасность
перегрева
1000.6 999.8
18 21.06 штиль 0 4000 м ясно +29.5 +29.0 97 +51 +51 опасность
перегрева
1000.3 999.5
21 21.06 штиль 0 4000 м ясно +28.0 +27.0 94 +44 +44 опасность
перегрева
1003.2 1002.4
00 22.06 штиль 0 7000 м ясно +27.5 +27.0 97 +43 +44 опасность
перегрева
1003.7 1002.9
03 22.06 штиль 0 8000 м ясно +30.0 +25.0 75 +43 +60 опасность
перегрева
1005.2 1004.4 +26.4
06 22.06 штиль 0 9000 м 5/4 500 м
[Sc diur, vesp Ac trans]
+33.8 +27.0 68 +52 +68 опасность
перегрева
1003.5 1002.7
09 22.06 штиль 0 8000 м 9/4 500 м
[Sc As trans]
+34.0 +28.0 71 +55 +60 опасность
перегрева
1001.3 1000.5
12 22.06 штиль 0 5000 м 5/4 500 м
[Sc Ac trans]
+31.0 +29.0 89 +54 +54 опасность
перегрева
1000.5 999.7 +34.5
15 22.06 штиль 0 4000 м ясно +30.3 +29.0 93 +53 +53 опасность
перегрева
1001.5 1003.7
18 22.06 штиль 0 4000 м ясно +29.8 +29.0 95 +52 +52 опасность
перегрева
1002.1 1001.3
21 22.06 штиль 0 4000 м ясно +28.3 +27.0 93 +45 +45 опасность
перегрева
1002.3 1001.5
00 23.06 штиль 0 7000 м 8/4 540 м
[Sc As trans]
+28.0 +27.0 94 +44 +44 опасность
перегрева
1002.7 1001.9
03 23.06 штиль 0 7000 м 9/4 500 м
[Sc As trans]
+29.0 +28.0 94 +48 +53 опасность
перегрева
1003.7 1002.8 +26.3
06 23.06 штиль 0 7000 м слабый дождь 10/4 450 м
[Sc As trans]
+28.0 +26.0 89 +42 +49 опасность
перегрева
1003.7 1002.9 0.8
09 23.06 штиль 0 7000 м в посл. час дождь 10/3 480 м
[Sc As trans]
+29.1 +27.0 88 +46 +50 опасность
перегрева
1001.7 1000.9
12 23.06 штиль 0 8000 м {дождь} 8/4 540 м
[Sc As trans]
+29.4 +26.0 82 +44 +45 опасность
перегрева
1000.7 999.9 +30.2 1
15 23.06 штиль 0 4000 м 4/4 540 м
[Sc]
+27.6 +26.0 91 +41 +41 опасность
перегрева
1002.0 1001.2

 

Местоположение метеостанции Madaripur (Бангладеш): широта 23.17 долгота 90.18 высота над уровнем моря 13 м.

В архиве по умолчанию представлена погода в Madaripur за последнюю неделю. Архивные данные за месяц целиком и за предыдущие месяцы, начиная с января 2011 года, Вы можете получить, выбрав интересующий диапазон дат из раскрывающегося списка и нажав кнопку "Ввод!".


*Определитесь, кто Вы:
робот инопланетянин человек

Внимание! Время в таблицах - всемирное. Для получения местного времени необходимо прибавить поправку, которая в Madaripur равна 6.5 ч.

Смотрите также архив погоды в соседних городах и на ближайших метеорологических станциях:

Погода в Gopalganj Sadar (Бангладеш) (41 км)
Погода в Barisal (Бангладеш) (51 км)
Погода в Chandpur (Бангладеш) (54 км)
Погода в Faridpur (Бангладеш) (59 км)
Погода в Dhaka (Бангладеш) (70 км)
Погода в Bhola (Бангладеш) (73 км)
Погода в Khulna (Бангладеш) (79 км)
Погода в Mongla (Бангладеш) (94 км)
Погода в Patuakhali (Бангладеш) (95 км)
Погода в Maijdicourt (Бангладеш) (100 км)

Пояснения к столбцам:

Ветер - указаны скорость ветра в м/с - средняя за 10 мин, порывы в срок и между сроками (в фигурных скобках) и направление, откуда дует ветер: С - северный, СВ - северо-восточный, В - восточный, ЮВ - юго-восточный, Ю - южный, ЮЗ - юго-западный, З - западный, СЗ - северо-западный.
Видимость - горизонтальная дальность видимости в метрах или километрах. При видимости от 1 до 10 км при отсутствии осадков обычно наблюдается дымка, при ухудшении видимости до 1 км и менее - туман. В сухую погоду видимость может ухудшаться дымом, пылью или мглою.
Явления - указаны атмосферные явления, наблюдавшиеся в срок или в последний час перед сроком; фигурными скобками обозначены явления, наблюдавшиеся между сроками (за 1-3 часа до срока); квадратными скобками обозначены град или гололедные отложения с указанием их диаметра в мм.
Облачность - указаны через наклонную черту общая и нижняя облачность в баллах и высота нижней границы облаков в метрах; квадратными скобками обозначены формы облаков: Ci - перистые, Cs - перисто-слоистые, Cc - перисто-кучевые, Ac - высококучевые, As - высокослоистые, Sc - слоисто-кучевые, Ns - слоисто-дождевые, Cu - кучевые, Cb - кучево-дождевые. Подробнее классификацию облаков см. в Атласе облаков (PDF).
T - Температура воздуха - температура, измеренная на высоте 2 м над землей.
Td - Температура точки росы - температура, при понижении до которой содержащийся в воздухе водяной пар достигнет насыщения.
f - Относительная влажность воздуха - влажноcть воздуха, измеренная на высоте 2 м над землей.
Te - Эффективная температура - температура, которую ощущает одетый по сезону человек в тени. Характеристика душности погоды. При расчете учитывается влияние влажности воздуха и скорости ветра на теплоощущения человека.
Tes - Эффективная температура на солнце - температура, которую ощущает человек, с поправкой на солнечный нагрев. Характеристика знойности погоды. Зависит от высоты солнца над горизонтом, облачности и скорости ветра. Ночью, в пасмурную погоду, а также при ветре 12 м/с и более поправка равна нулю.
P - Атмосферное давление - приведенное к уровню моря атмосферное давление.
Po - Атмосферное давление - измеренное на уровне метеостанции атмосферное давление.
Tmin - Минимальная температура - минимум температуры воздуха на высоте 2 м над землей.
Tmax - Максимальная температура - максимум температуры воздуха на высоте 2 м над землей.
R - Количество осадков - Количество выпавших осадков за период времени, мм. При наведении курсора мыши на число - период времени, за который выпало указанное количество осадков.
R24 - Количество осадков - Количество выпавших осадков за 24 часа, мм.
S - Снежный покров - Высота снежного покрова, см. При наведении курсора мыши на число - состояние снежного покрова и степень покрытия местности в баллах.